EW8201 Weather Reports


time (UTC)temp
C
wind
direction
speed
KPH
gust
KPH
rain 1hr
cm
rain 24hr
cm
rain mn
cm
humidity
%
barometer
mb
20260503033052 13 278 30.6 43.5 0.00 0.00 0.00 60 1003.2
20260503031550 13 302 3.2 4.8 0.00 0.00 0.00 43 1002.2
20260503030049 14 231 0.0 3.2 0.00 0.00 0.00 41 1001.6
20260503024549 15 184 1.6 3.2 0.00 0.00 0.00 39 1001.3
20260503023052 16 188 1.6 6.4 0.00 0.00 0.00 39 1001.2
20260503021555 17 165 0.0 1.6 0.00 0.00 0.00 42 1001.1
20260503020053 18 165 0.0 3.2 0.00 0.00 0.00 34 1001.1
20260503014548 19 165 0.0 3.2 0.00 0.00 0.00 32 1001.1
20260503013046 20 123 1.6 9.7 0.00 0.00 0.00 31 1001.1
20260503011553 20 142 1.6 9.7 0.00 0.00 0.00 32 1001.1
20260503010043 20 137 1.6 9.7 0.00 0.00 0.00 32 1001.3
20260503004540 19 300 4.8 11.3 0.00 0.00 0.00 33 1001.4
20260503003039 18 274 3.2 6.4 0.00 0.00 0.00 33 1001.5
20260503001537 18 336 6.4 9.7 0.00 0.00 0.00 33 1001.6
20260503000055 18 34 3.2 9.7 0.00 0.00 0.00 33 1001.7
20260502234536 18 68 1.6 9.7 0.00 0.00 0.00 33 1001.7
20260502233035 20 192 1.6 11.3 0.00 0.00 0.00 31 1001.8
20260502231536 19 168 3.2 8.0 0.00 0.00 0.00 35 1002.0
20260502230033 19 312 3.2 9.7 0.00 0.00 0.00 33 1002.3
20260502224532 19 117 6.4 14.5 0.00 0.00 0.00 32 1002.5
20260502223031 20 260 3.2 19.3 0.00 0.00 0.00 33 1002.6
20260502221528 19 303 4.8 19.3 0.00 0.00 0.00 35 1002.9
20260502220027 18 321 6.4 16.1 0.00 0.00 0.00 34 1003.1
20260502214524 18 284 4.8 14.5 0.00 0.00 0.00 37 1003.3
20260502213023 18 10 6.4 9.7 0.00 0.00 0.00 37 1003.7
20260502211531 17 108 0.0 14.5 0.00 0.00 0.00 38 1003.7
20260502210020 17 89 1.6 12.9 0.00 0.00 0.00 38 1003.9
20260502204521 18 41 8.0 20.9 0.00 0.00 0.00 37 1003.9
20260502203016 17 5 9.7 20.9 0.00 0.00 0.00 37 1004.0
20260502201516 17 26 9.7 17.7 0.00 0.00 0.00 38 1004.2
20260502200015 17 38 11.3 24.1 0.00 0.00 0.00 40 1004.4
20260502194514 16 42 12.9 20.9 0.00 0.00 0.00 40 1004.6
20260502193013 16 53 9.7 20.9 0.00 0.00 0.00 40 1004.6
20260502191512 16 29 4.8 16.1 0.00 0.00 0.00 39 1004.8
20260502190011 17 53 6.4 14.5 0.00 0.00 0.00 38 1004.8
20260502184514 18 302 3.2 12.9 0.00 0.00 0.00 37 1004.9
20260502183009 17 12 6.4 16.1 0.00 0.00 0.00 38 1004.9
20260502181506 17 61 4.8 11.3 0.00 0.00 0.00 40 1005.1
20260502163100 16 313 9.7 19.3 0.00 0.00 0.00 41 1005.4
20260502161606 16 360 9.7 19.3 0.00 0.00 0.00 41 1005.5
20260502151605 14 62 9.7 16.1 0.00 0.00 0.00 43 1005.7
20260502123035 9 37 17.7 25.7 0.00 0.00 0.00 54 1004.4
20260502121536 9 31 20.9 30.6 0.00 0.00 0.00 53 1004.3
20260502114527 10 26 22.5 32.2 0.00 0.00 0.00 52 1004.1
20260502113033 10 57 22.5 30.6 0.00 0.00 0.00 51 1003.9
20260502111522 9 50 22.5 29.0 0.00 0.00 0.00 51 1003.7
20260502110027 8 44 17.7 20.9 0.00 0.00 0.00 54 1003.6
20260502104517 7 337 3.2 6.4 0.00 0.00 0.00 51 1003.5
20260502103016 7 305 3.2 6.4 0.00 0.00 0.00 52 1003.4
20260502101514 7 328 3.2 9.7 0.00 0.00 0.00 50 1003.2
20260502091504 8 321 14.5 19.3 0.00 0.00 0.00 47 1002.5
20260502090116 8 13 3.2 4.8 0.00 0.00 0.00 46 1002.4
20260502070058 10 5 6.4 9.7 0.00 0.00 0.00 39 1002.0
20260502064554 11 325 8.0 12.9 0.00 0.00 0.00 37 1001.9
20260502063043 12 324 8.0 16.1 0.00 0.00 0.00 35 1001.9
20260502061531 13 327 12.9 20.9 0.00 0.00 0.00 33 1001.9
20260502060028 13 338 17.7 24.1 0.00 0.00 0.00 32 1001.8
20260502054534 13 336 19.3 25.7 0.00 0.00 0.00 32 1001.7
20260502053027 13 319 16.1 22.5 0.00 0.00 0.00 32 1001.8
20260502051526 13 304 17.7 24.1 0.00 0.00 0.00 33 1001.7
20260502050038 12 317 12.9 20.9 0.00 0.00 0.00 33 1001.7
20260502044526 12 317 11.3 17.7 0.00 0.00 0.00 32 1001.8
20260502043025 13 321 3.2 11.3 0.00 0.00 0.00 29 1001.8
20260502041527 14 310 8.0 17.7 0.00 0.00 0.00 28 1001.8
20260502040024 14 298 12.9 19.3 0.00 0.00 0.00 27 1001.8
20260502034524 14 310 14.5 24.1 0.00 0.00 0.00 27 1001.7